Other Public Products
Issued by NWS Grand Forks, ND

Home | Current Version | Previous Version | Text Only | Print | Product List | Glossary On
Versions: 1 2 3 4 5 6 7 8 9 10 11 12 13 14 15 16 17 18 19 20 21 22 23 24 25 26 27 28 29 30 31 32 33 34 35 36 37 38 39 40 41 42 43 44 45 46 47 48 49 50
056
FPUS83 KFGF 031931
OPUFGF
PRAIRIE TO PINES WEATHER ROUNDUP
NATIONAL WEATHER SERVICE EASTERN NORTH DAKOTA/GRAND FORKS ND
100 PM CST SAT DEC 03 2016

 **SATELLITE DATA USED TO AUGMENT SKY COVER AT AUTOMATED STATIONS**
 *****  WEATHER ACROSS EASTERN NORTH DAKOTA  *****

CITY           SKY/WX    TMP DP  RH WIND       PRES   REMARKS
GRAND FORKS    CLOUDY    29  22  75 S17       30.09F WCI  17
GRAND FORKS AF CLOUDY    29  23  79 S20G25    30.06F WCI  16
GRAND CITY NWS   N/A     28 N/A N/A S12         N/A  WCI  18
BUXTON           N/A     44  40  85 S14         N/A
DEVILS LAKE    CLOUDY    30  27  88 S20       29.97F WCI  17
FARGO          CLOUDY    32  23  69 S18       30.11F WCI  20
WAHPETON ARPT  PTCLDY    32  27  80 SE15      30.11F WCI  22
$$

 *****  WEATHER ACROSS CENTRAL AND WESTERN NORTH DAKOTA  *****

CITY           SKY/WX    TMP DP  RH WIND       PRES   REMARKS
JAMESTOWN      CLOUDY    32  27  81 SE16      29.97F WCI  21
BISMARCK       MOSUNNY   29  24  82 SW6       29.91F WCI  23
MINOT          SUNNY     28  24  85 S8        29.83F WCI  20
MINOT AFB      SUNNY     27  22  83 S16       29.82F WCI  15
GARRISON         N/A     27  23  85 S15       29.85F WCI  15
WILLISTON      FLURRIES  31  26  82 S8        29.77F WCI  23
DICKINSON      PTSUNNY   27  20  75 SW9       29.80F WCI  18
HETTINGER      PTSUNNY   26  20  77 SW5       29.86F WCI  20
$$

 *****  OTHER OBSERVATIONS NORTHEAST NORTH DAKOTA  *****

CITY           SKY/WX    TMP DP  RH WIND       PRES   REMARKS
WALHALLA         N/A     28  28 100 S16G24    30.02F WCI  17
LANGDON        CLOUDY    28  28 100 S17G26    29.97F WCI  16
CAVALIER         N/A     28  27  93 S16G22    30.04F WCI  17
GRAFTON        CLOUDY    30  25  80 S16G24    30.09S WCI  19
CANDO          CLOUDY    32  28  86 S21G26    29.96F WCI  20
FORT TOTTEN      N/A     30  29  98 S18       29.95  WCI  18
ROLLA          CLOUDY    27  27 100 S20G26    29.90F WCI  13
RUGBY            N/A     28  27  93 S15G21    29.90F WCI  17
 ***** THE ABOVE OBSERVATIONS ARE NON NWS ARE NOT QUALITY
        CONTROLLED AND MAY MIS-REPORT RAIN FOR SNOW...
$$

 *****  OTHER OBSERVATIONS SOUTHEAST NORTH DAKOTA *****

CITY           SKY/WX    TMP DP  RH WIND       PRES   REMARKS
COOPERSTOWN    CLOUDY    30  27  86 S18       30.01F WCI  18
VALLEY CITY    FLURRIES  30  30 100 SE18      30.04F WCI  18
OAKES          NOT AVBL
GWINNER          N/A     32  30  93 SE20      30.04F WCI  20
SHEYENNE NWR     N/A     31  25  77 SE14      29.95S WCI  21
BUFFALO          N/A     29  24  79 N16         N/A  WCI  18
WYNDMERE         N/A     32  27  80 SE16        N/A  WCI  21
 ***** THE ABOVE OBSERVATIONS ARE NON NWS ARE NOT QUALITY
       CONTROLLED AND MAY MIS-REPORT RAIN FOR SNOW...
$$

  *****  WEATHER ACROSS NORTHERN MINNESOTA  *****

CITY           SKY/WX    TMP DP  RH WIND       PRES   REMARKS
FLAG ISLAND    CLOUDY    27  23  86 S15       30.12F WCI  15
WARROAD        CLOUDY    27  21  80 S13       30.14S WCI  16
ROSEAU         CLOUDY    27  21  80 S13       30.12F WCI  16
HALLOCK        CLOUDY    28  27  93 S20       30.08F WCI  15
THF RVR FALLS  CLOUDY    27  20  75 SE15G23   30.12F WCI  15
HALSTAD          N/A     30  23  75 S17         N/A  WCI  18
FOSSTON        PTSUNNY   27  23  86 SE10      30.12F WCI  17
BAUDETTE       CLOUDY    26  19  74 S12       30.15F WCI  16
WASKISH        CLOUDY    27  21  80 SE8       30.16F WCI  18
CROOKSTON      CLOUDY    28  21  74 S17       30.11F WCI  16
$$
  *****  WEATHER ACROSS CENTRAL AND WEST MINNESOTA  *****

CITY           SKY/WX    TMP DP  RH WIND       PRES   REMARKS
BEMIDJI        CLOUDY    25  19  80 S9        30.14F WCI  15
PARK RAPIDS    CLOUDY    26  17  68 SE14      30.16F WCI  14
WADENA         PTSUNNY   27  19  74 SE10      30.15F WCI  17
DETROIT LAKES  MOSUNNY   30  23  74 SE15      30.13S WCI  19
MOORHEAD       CLOUDY    30  25  80 SE20      30.11F WCI  18
FERGUS FALLS   MOSUNNY   30  21  69 SE14      30.16F WCI  20
ELBOW LAKE     FAIR      31  24  74 SE10      30.12F WCI  22
MORRIS MN      SUNNY     32  27  80 SE16      30.13F WCI  21
STAPLES        PTSUNNY   27  18  69 SE6       30.17F WCI  20
WHEATON        MOSUNNY  N/A N/A N/A SE16      30.14F
$$
  *****  WEATHER ELSEWHERE ACROSS MINNESOTA  *****

CITY           SKY/WX    TMP DP  RH WIND       PRES   REMARKS
DULUTH         FLURRIES  28  23  81 S5        30.21S WCI  23
INTRNTL FALLS  CLOUDY    26  19  74 VRB5      30.18F WCI  20
ELY            CLOUDY    25  23  93 CALM      30.19F
CLOQUET        CLOUDY    28  21  74 S5        30.21S WCI  23
BRAINERD       CLOUDY    26  19  74 S9        30.21F WCI  17
HIBBING        CLOUDY    26  19  74 SE9       30.19F WCI  17
ALEXANDRIA     SUNNY     30  21  69 SE13      30.16F WCI  20
SAINT CLOUD    MOSUNNY   28  20  71 S7        30.22F WCI  21
MINNEAPOLIS    MOSUNNY   30  19  63 S6        30.25F WCI  24
$$

  *****  WEATHER ACROSS SOUTH DAKOTA  *****

CITY           SKY/WX    TMP DP  RH WIND       PRES   REMARKS
SIOUX FALLS    CLOUDY    36  31  82 S16G23    30.15F
BROOKINGS      NOT AVBL
WATERTOWN      PTSUNNY   32  28  85 S15       30.06F WCI  22
HURON          LGT RAIN  33  32  96 SE14      30.03F WCI  23
SISSETON         N/A     31  26  82 S18       30.09F WCI  19
ABERDEEN       CLOUDY    34  29  82 S14       30.02F WCI  25
MITCHELL       LGT RAIN  34  33  96 SE14      30.07F WCI  25
PIERRE         SUNNY     36  30  79 S10       29.92F
MOBRIDGE       SUNNY     36  29  75 S8        29.89F
RAPID CITY     SUNNY     41  18  39 N15       29.87F
$$

  *****  SOME WEATHER IN NEARBY STATES *****

CITY           SKY/WX    TMP DP  RH WIND       PRES   REMARKS
GLASGOW MT     CLOUDY    40  27  59 W16       29.73F
GREAT FALLS MT CLOUDY    42  24  49 W17       29.88R
CHEYENNE WY    CLOUDY    33   7  33 W12G28    29.94F WCI  24
SCOTTSBLUFF NE SUNNY     43  10  26 W20G28    29.95F
OMAHA NE       SNOW      33  29  85 SE6       30.25F VSB 1/2
DES MOINES IA  CLOUDY    41  30  65 S9        30.28F
DAVENPORT IA   CLOUDY    37  26  64 SW6       30.33F
CHICAGO IL     CLOUDY    33  23  66 W8        30.34R
EAU CLAIRE WI  CLOUDY    30  24  78 W5        30.27S
LA CROSSE WI   CLOUDY    34  23  64 S7        30.29F
$$

  *****  SOME NATIONAL WEATHER *****

CITY           SKY/WX    TMP DP  RH WIND       PRES   REMARKS
LA GUARDIA NY  PTSUNNY   49  27  42 NW20      30.02F
RALEIGH NC     PTSUNNY   52  25  35 VRB3      30.22F
ATLANTA GA     PTSUNNY   57  28  33 NE5       30.20F
NEW ORLEANS LA CLOUDY    63  52  67 E15G22    30.03F
OKLAHOMA CITY  LGT RAIN  45  43  93 E10       30.09F
ALBUQUERQUE NM PTSUNNY   42  27  55 NW10      30.07F
SALT LAKE CITY CLOUDY    32  21  64 SE8       30.29F WCI  25
LOS ANGELES CA SUNNY     64  19  17 S6        30.12F
BOISE ID       CLOUDY    40  27  59 CALM      30.29S
SEATTLE WA     CLOUDY    47  41  80 SW17G25   30.30R
$$

*** WEATHER ACROSS MANITOBA...SASKATCHEWAN AND ONTARIO ***
                ***ONTARIO***

CITY           SKY/WX    TMP DP  RH WIND       PRES   REMARKS
GERALDTON      FLURRIES  23  18  80 CALM      30.22F
THUNDER BAY    PTSUNNY   32  21  64 NW5       30.24F
SIOUX LOOKOUT  FLURRIES  21  18  86 S7        30.18S WCI  13
TORONTO        PTSUNNY   41  21  45 NW21G28   30.15S
BIG TROUT LK   CLOUDY    19  19 100 S6        30.20F WCI  11
PICKLE LAKE    FRZ DRZL  21  18  86 S7        30.17F WCI  13
DRYDEN         FLURRIES  23  19  86 S7        30.15F WCI  15
KENORA         FLURRIES  25  21  86 S12G18    30.11F WCI  14
$$
                *** MANITOBA***

CITY           SKY/WX    TMP DP  RH WIND       PRES   REMARKS
BRANDON        MOSUNNY   30  27  86 SE10G18   29.89F WCI  21
DAUPHIN        SUNNY     30  25  80 S7        29.84F WCI  23
ISLAND LAKE    FLURRIES  10   7  85 S8        30.13F WCI  -1
PILOT MOUND      N/A     27  25  93 S23         N/A  WCI  12
THE PAS        FLURRIES  28  25  86 SE13      29.81F WCI  18
THOMPSON       FLURRIES  19  18  93 SE6       30.01F WCI  11
WINNIPEG       CLOUDY    28  25  86 S20G30    30.04F WCI  15
LYNN LAKE      CLOUDY    25  25 100 SE12      29.86F WCI  14
CHURCHILL      FLURRIES  10   9  92 S6        30.10S WCI   1
GILLAM         LGT SNOW  14  10  85 S6        30.12F WCI   5
$$
                ***SASKATCHEWAN***

CITY           SKY/WX    TMP DP  RH WIND       PRES   REMARKS
ESTEVAN        LGT SNOW  28  25  86 S12       29.74F WCI  18
KINDERSLEY     LGT SNOW  25  23  93 NW7       29.70S WCI  17
LLOYDMINSTER   CLOUDY    25  25 100 W7        29.69F FOG     WCI  17
PRINCE ALBERT  CLOUDY    28  27  93 E7        29.70F WCI  21
REGINA         PTSUNNY   28  28 100 SE12      29.64F WCI  18
YORKTON        MOSUNNY   25  21  86 SE13G21   29.72F WCC1F1C2F2C3F3C4F4C5F5C6F6C7F7C8F8C9F9CaFaCbFbCcFcCdFdCe!



USA.gov is the U.S. government's official web portal to all federal, state and local government web resources and services.